This is the latest recevied weather packets stored in our database for station/object VU3HGG-15. If no packets are shown the sender has not sent any weather packets the latest 10 day(s).
| Time | Temp. | Humidity | Pressure | Rain* | Wind** | Luminosity | Snow |
|---|---|---|---|---|---|---|---|
| 1788070175 | 26.67° C | 62% | 911.5 hPa | - | - | - | - |
| 1788069575 | 26.67° C | 61% | 911.6 hPa | - | - | - | - |
| 1788068976 | 26.11° C | 62% | 911.7 hPa | - | - | - | - |
| 1788068375 | 26.11° C | 63% | 911.8 hPa | - | - | - | - |
| 1788067775 | 26.11° C | 63% | 911.8 hPa | - | - | - | - |
| 1788067176 | 26.67° C | 63% | 911.7 hPa | - | - | - | - |
| 1788066575 | 26.11° C | 64% | 911.7 hPa | - | - | - | - |
| 1788065976 | 26.11° C | 64% | 911.7 hPa | - | - | - | - |
| 1788065376 | 25.56° C | 64% | 911.8 hPa | - | - | - | - |
| 1788064776 | 26.11° C | 64% | 911.8 hPa | - | - | - | - |
| 1788064176 | 26.11° C | 65% | 911.9 hPa | - | - | - | - |
| 1788063576 | 26.11° C | 64% | 911.9 hPa | - | - | - | - |
| 1788062976 | 25.56° C | 66% | 911.8 hPa | - | - | - | - |
| 1788062376 | 26.11° C | 65% | 911.9 hPa | - | - | - | - |
| 1788061776 | 25.56° C | 66% | 911.9 hPa | - | - | - | - |
| 1788061176 | 25.56° C | 68% | 911.8 hPa | - | - | - | - |
| 1788060576 | 25.56° C | 66% | 911.8 hPa | - | - | - | - |
| 1788059976 | 25.56° C | 67% | 911.7 hPa | - | - | - | - |
| 1788059376 | 25.56° C | 66% | 911.6 hPa | - | - | - | - |
| 1788058776 | 25.56° C | 66% | 911.5 hPa | - | - | - | - |
| 1788058176 | 26.11° C | 66% | 911.4 hPa | - | - | - | - |
| 1788057576 | 25.56° C | 67% | 911.4 hPa | - | - | - | - |
| 1788056976 | 25.56° C | 66% | 911.2 hPa | - | - | - | - |
| 1788056376 | 26.11° C | 65% | 911.2 hPa | - | - | - | - |
| 1788055776 | 27.22° C | 63% | 911.2 hPa | - | - | - | - |
* Rain since midnight (hover to see other rain measurements)
** Current wind speed in m/s (hover to see current wind gust speed)